Westerly, RI

10:01 AM EST on December 16, 2017 (GMT -0500)
Westerly State

Weather History for KWST - October, 2012

Change the Weather History Date:

Monday, October 1, 2012

  Actual Average (KGON) Record (KGON)
Temperature  
Mean Temperature 60 °F -  
Max Temperature 66 °F 67 °F 80 °F (1986)
Min Temperature 51 °F 48 °F 32 °F (1992)
Degree Days  
Heating Degree Days 5    
Growing Degree Days 10 (Base 50)    
Moisture  
Dew Point 50 °F    
Average Humidity 71    
Maximum Humidity 92    
Minimum Humidity 59    
Precipitation  
Precipitation 0.00 in - - ()
Sea Level Pressure  
Sea Level Pressure 29.84 in    
Wind  
Wind Speed 8 mph (WSW)    
Max Wind Speed 16 mph    
Max Gust Speed 28 mph    
Visibility 10 miles    
Events      
Averages and records for this station are not official NWS values.
T = Trace of Precipitation, MM = Missing Value Source: NWS Daily Summary

Daily Weather History Graph

Daily Weather History Graph

Search for Another Location

Airport or City:

Trip Planner

Search our weather history database for the weather conditions in past years. The results will help you decide how hot, cold, wet, or windy it might be!

Date:

Astronomy

Oct. 01, 2012 Rise Set
Actual Time 6:44 AM EDT 6:28 PM EDT
Civil Twilight 6:16 AM EDT 6:55 PM EDT
Nautical Twilight 5:44 AM EDT 7:27 PM EDT
Astronomical Twilight 5:12 AM EDT 8:00 PM EDT
Moon 7:01 PM EDT (10/1) 8:12 AM EDT (10/1)
Length of Visible Light 12h 38m
Length of Day
11h 43m
Full, 98% of the Moon is Illuminated
Oct 1
Full
Oct 8
Last Quarter
Oct 15
New
Oct 21
First Quarter
Oct 29
Full

Hourly Weather History & Observations

Time (EDT) Temp. Dew Point Humidity Pressure Visibility Wind Dir Wind Speed Gust Speed Precip Events Conditions
12:53 AM 55.0 °F 46.9 °F 74% 29.78 in 10.0 mi West 6.9 mph - N/A   Clear
1:53 AM 55.0 °F 46.9 °F 74% 29.78 in 10.0 mi West 6.9 mph - N/A   Clear
2:53 AM 54.0 °F 46.9 °F 77% 29.78 in 10.0 mi WSW 6.9 mph - N/A   Clear
3:53 AM 54.0 °F 46.9 °F 77% 29.78 in 10.0 mi West 5.8 mph - N/A   Clear
4:53 AM 54.0 °F 48.0 °F 80% 29.79 in 10.0 mi West 6.9 mph - N/A   Clear
5:53 AM 55.0 °F 48.0 °F 77% 29.79 in 10.0 mi West 6.9 mph - N/A   Clear
6:53 AM 54.0 °F 48.0 °F 80% 29.80 in 10.0 mi West 3.5 mph - N/A   Clear
7:53 AM 57.9 °F 48.9 °F 72% 29.81 in 10.0 mi West 10.4 mph 18.4 mph N/A   Clear
8:53 AM 60.1 °F 48.9 °F 67% 29.81 in 10.0 mi WSW 11.5 mph 19.6 mph N/A   Clear
9:53 AM 62.1 °F 48.9 °F 62% 29.83 in 10.0 mi West 10.4 mph 21.9 mph N/A   Clear
10:53 AM 62.1 °F 48.9 °F 62% 29.82 in 10.0 mi WSW 16.1 mph 27.6 mph N/A   Clear
11:53 AM 64.0 °F 50.0 °F 60% 29.83 in 10.0 mi WSW 11.5 mph 20.7 mph N/A   Clear
12:53 PM 64.0 °F 50.0 °F 60% 29.83 in 10.0 mi WSW 15.0 mph 23.0 mph N/A   Clear
1:53 PM 66.0 °F 51.1 °F 59% 29.82 in 10.0 mi WSW 13.8 mph 23.0 mph N/A   Clear
2:53 PM 66.9 °F 52.0 °F 59% 29.83 in 10.0 mi WSW 13.8 mph 24.2 mph N/A   Clear
3:53 PM 66.9 °F 53.1 °F 61% 29.84 in 10.0 mi WSW 13.8 mph 21.9 mph N/A   Clear
4:53 PM 66.0 °F 54.0 °F 65% 29.86 in 10.0 mi WSW 9.2 mph 21.9 mph N/A   Clear
5:53 PM 66.0 °F 55.0 °F 68% 29.88 in 10.0 mi WSW 8.1 mph 16.1 mph N/A   Clear
6:53 PM 63.0 °F 55.0 °F 75% 29.90 in 10.0 mi West 3.5 mph - N/A   Clear
7:53 PM 61.0 °F 53.1 °F 75% 29.93 in 10.0 mi Calm Calm - N/A   Clear
8:53 PM 59.0 °F 52.0 °F 78% 29.95 in 10.0 mi Calm Calm - N/A   Clear
9:53 PM 55.0 °F 52.0 °F 89% 29.97 in 10.0 mi Calm Calm - N/A   Clear
11:53 PM 51.1 °F 48.9 °F 92% 29.98 in 10.0 mi Calm Calm - N/A   Clear